QPF
0.00 0.00 0.00 0.00 0.00 0.00 0.00 0.00 0.00 0.00 0.00 0.00 0.00 0.00 0.00 0.00 0.00 0.00 0.00 0.00 0.00 0.00 0.00 0.00 0.01 0.00 0.00 0.00 0.00 0.00 0.00 0.00 0.00 0.00 0.00 0.00 0.00 0.00 0.00 0.00 0.00 0.00 0.00 0.00 0.00 0.00 0.00 0.00 0.00
0.00 0.00 0.00 0.00 0.00 0.00 0.00 0.00 0.00 0.00 0.00 0.00 0.00 0.00 0.00 0.00 0.00 0.00 0.00 0.00 0.00 0.00 0.00 0.00 0.01 0.00 0.00 0.00 0.00 0.00 0.00 0.00 0.00 0.00 0.00 0.00 0.00 0.00 0.00 0.00 0.00 0.00 0.00 0.00 0.00 0.00 0.00 0.00 0.00
0.00 0.00 0.00 0.00 0.00 0.00 0.00 0.00 0.00 0.00 0.00 0.00 0.00 0.00 0.00 0.00 0.00 0.00 0.00 0.00 0.00 0.00 0.00 0.00 0.00 0.00 0.00 0.00 0.00 0.00 0.00 0.00 0.00 0.00 0.00 0.00 0.00 0.00 0.00 0.00 0.00 0.00 0.00 0.00 0.00 0.00 0.00 0.00 0.00
0.00 0.00 0.00 0.00 0.00 0.00 0.00 0.00 0.00 0.00 0.00 0.00 0.00 0.00 0.00 0.00 0.00 0.00 0.00 0.00 0.00 0.00 0.00 0.00 0.00 0.00 0.00 0.00 0.00 0.00 0.00 0.00 0.00 0.00 0.00 0.00 0.00 0.00 0.00 0.00 0.00 0.00 0.00 0.00 0.00 0.00 0.00 0.00 0.00
0.00 0.00 0.00 0.00 0.00 0.00 0.00 0.00 0.00 0.00 0.00 0.00 0.00 0.00 0.00 0.00 0.00 0.00 0.00 0.00 0.00 0.00 0.00 0.00 0.00 0.00 0.00 0.00 0.00 0.00 0.00 0.00 0.00 0.00 0.00 0.00 0.00 0.00 0.00 0.00 0.00 0.00 0.00 0.00 0.00 0.00 0.00 0.00 0.00
0.00 0.00 0.00 0.00 0.00 0.00 0.00 0.00 0.00 0.00 0.00 0.00 0.00 0.00 0.00 0.00 0.00 0.00 0.00 0.00 0.00 0.00 0.00 0.00 0.00 0.00 0.00 0.00 0.00 0.00 0.00 0.00 0.00 0.00 0.00 0.00 0.00 0.00 0.00 0.00 0.00 0.00 0.00 0.00 0.00 0.00 0.00 0.00 0.00
0.00 0.00 0.00 0.00 0.00 0.00 0.00 0.00 0.00 0.00 0.00 0.00 0.00 0.00 0.00 0.00 0.00 0.00 0.00 0.00 0.00 0.00 0.00 0.00 0.00 0.00 0.00 0.00 0.00 0.00 0.00 0.00 0.00 0.00 0.00 0.00 0.00 0.00 0.00 0.00 0.00 0.00 0.00 0.00 0.00 0.00 0.00 0.00 0.00
0.00 0.00 0.00 0.00 0.00 0.00 0.00 0.00 0.00 0.00 0.00 0.00 0.00 0.00 0.00 0.00 0.00 0.00 0.00 0.00 0.00 0.00 0.00 0.00 0.00 0.00 0.00 0.00 0.00 0.00 0.00 0.00 0.00 0.00 0.00 0.00 0.00 0.00 0.00 0.00 0.00 0.00 0.00 0.00 0.00 0.00 0.00 0.00 0.00
0.00 0.00 0.00 0.00 0.00 0.00 0.00 0.00 0.00 0.00 0.00 0.00 0.00 0.00 0.00 0.00 0.00 0.00 0.00 0.00 0.00 0.00 0.00 0.00 0.00 0.00 0.00 0.00 0.00 0.00 0.00 0.00 0.00 0.00 0.00 0.00 0.00 0.00 0.00 0.00 0.00 0.00 0.00 0.00 0.00 0.00 0.00 0.00 0.00
0.00 0.00 0.00 0.00 0.00 0.00 0.00 0.00 0.00 0.00 0.00 0.00 0.00 0.00 0.00 0.00 0.00 0.00 0.00 0.00 0.00 0.00 0.00 0.00 0.00 0.00 0.00 0.00 0.00 0.00 0.00 0.00 0.00 0.00 0.00 0.00 0.00 0.00 0.00 0.00 0.00 0.00 0.00 0.00 0.00 0.00 0.00 0.00 0.00
0.00 0.00 0.00 0.00 0.00 0.00 0.00 0.00 0.00 0.00 0.00 0.00 0.00 0.00 0.00 0.00 0.00 0.00 0.00 0.00 0.00 0.00 0.00 0.00 0.00 0.00 0.00 0.00 0.00 0.00 0.00 0.00 0.00 0.00 0.00 0.00 0.00 0.00 0.00 0.00 0.00 0.00 0.00 0.00 0.00 0.00 0.00 0.00 0.00
0.00 0.00 0.00 0.00 0.00 0.00 0.00 0.00 0.00 0.00 0.00 0.00 0.00 0.00 0.00 0.00 0.00 0.00 0.00 0.00 0.00 0.00 0.00 0.00 0.00 0.00 0.00 0.00 0.00 0.00 0.00 0.00 0.00 0.00 0.00 0.00 0.00 0.00 0.00 0.00 0.00 0.00 0.00 0.00 0.00 0.00 0.00 0.00 0.00
0.00 0.00 0.00 0.00 0.00 0.00 0.00 0.00 0.00 0.00 0.00 0.00 0.00 0.00 0.00 0.00 0.00 0.00 0.00 0.00 0.00 0.00 0.00 0.00 0.00 0.00 0.00 0.00 0.00 0.00 0.00 0.00 0.00 0.00 0.00 0.00 0.00 0.00 0.00 0.00 0.00 0.00 0.00 0.00 0.00 0.00 0.00 0.00 0.00
0.00 0.00 0.00 0.00 0.00 0.00 0.00 0.00 0.00 0.00 0.00 0.00 0.00 0.00 0.00 0.00 0.00 0.00 0.00 0.00 0.00 0.00 0.00 0.00 0.00 0.00 0.00 0.00 0.00 0.00 0.00 0.00 0.00 0.00 0.00 0.00 0.00 0.00 0.00 0.00 0.00 0.00 0.00 0.00 0.00 0.00 0.00 0.00 0.00
0.00 0.00 0.00 0.00 0.00 0.00 0.00 0.00 0.00 0.00 0.00 0.00 0.00 0.00 0.00 0.00 0.00 0.00 0.00 0.00 0.00 0.00 0.00 0.00 0.02 0.01 0.00 0.00 0.00 0.00 0.00 0.00 0.00 0.00 0.00 0.00 0.00 0.00 0.00 0.00 0.00 0.00 0.00 0.00 0.00 0.00 0.00 0.04 0.02
0.00 0.00 0.00 0.00 0.00 0.00 0.00 0.00 0.00 0.00 0.00 0.00 0.00 0.00 0.00 0.00 0.00 0.00 0.00 0.00 0.00 0.00 0.00 0.00 0.01 0.00 0.00 0.00 0.00 0.00 0.00 0.00 0.00 0.00 0.00 0.00 0.00 0.00 0.00 0.00 0.00 0.00 0.00 0.00 0.00 0.00 0.01 0.03 0.00
0.00 0.00 0.00 0.00 0.00 0.00 0.00 0.00 0.00 0.00 0.00 0.00 0.00 0.00 0.01 0.01 0.00 0.00 0.00 0.00 0.00 0.00 0.00 0.00 0.00 0.00 0.01 0.02 0.01 0.00 0.00 0.00 0.00 0.00 0.00 0.00 0.00 0.00 0.00 0.00 0.00 0.00 0.00 0.00 0.00 0.00 0.00 0.00 0.00
0.00 0.00 0.00 0.00 0.00 0.00 0.00 0.00 0.00 0.00 0.00 0.00 0.00 0.00 0.00 0.00 0.00 0.00 0.00 0.00 0.00 0.00 0.00 0.00 0.00 0.00 0.00 0.01 0.03 0.01 0.00 0.01 0.00 0.00 0.00 0.00 0.00 0.00 0.00 0.00 0.00 0.00 0.00 0.00 0.00 0.00 0.00 0.01 0.00
0.00 0.00 0.00 0.00 0.00 0.00 0.00 0.00 0.00 0.00 0.00 0.00 0.00 0.00 0.00 0.00 0.00 0.00 0.00 0.00 0.00 0.00 0.00 0.00 0.00 0.00 0.00 0.00 0.00 0.01 0.01 0.02 0.01 0.01 0.00 0.00 0.00 0.00 0.00 0.00 0.00 0.00 0.00 0.00 0.00 0.00 0.03 0.07 0.03
0.00 0.00 0.00 0.00 0.00 0.00 0.00 0.00 0.00 0.00 0.00 0.00 0.00 0.00 0.00 0.00 0.00 0.00 0.00 0.00 0.00 0.00 0.00 0.00 0.00 0.00 0.00 0.00 0.00 0.00 0.00 0.00 0.01 0.00 0.00 0.00 0.00 0.00 0.00 0.00 0.00 0.00 0.00 0.00 0.00 0.02 0.06 0.09 0.06
0.00 0.00 0.00 0.00 0.00 0.00 0.00 0.00 0.00 0.00 0.00 0.00 0.00 0.00 0.00 0.00 0.00 0.00 0.00 0.00 0.00 0.00 0.00 0.00 0.00 0.00 0.00 0.00 0.00 0.00 0.00 0.00 0.00 0.00 0.00 0.00 0.00 0.00 0.00 0.00 0.00 0.00 0.00 0.01 0.02 0.07 0.09 0.10 0.07
0.00 0.00 0.00 0.00 0.00 0.00 0.00 0.00 0.00 0.00 0.00 0.00 0.00 0.00 0.00 0.00 0.00 0.00 0.00 0.00 0.00 0.00 0.00 0.00 0.00 0.01 0.01 0.00 0.00 0.00 0.01 0.01 0.00 0.02 0.06 0.06 0.06 0.01 0.00 0.00 0.00 0.00 0.00 0.00 0.01 0.04 0.09 0.11 0.11
0.00 0.00 0.00 0.00 0.00 0.00 0.00 0.00 0.00 0.00 0.00 0.00 0.00 0.00 0.00 0.00 0.00 0.00 0.00 0.00 0.00 0.00 0.00 0.00 0.02 0.03 0.03 0.04 0.01 0.00 0.04 0.12 0.19 0.19 0.07 0.01 0.00 0.00 0.00 0.00 0.00 0.00 0.00 0.00 0.02 0.05 0.05 0.10 0.17
0.00 0.00 0.00 0.00 0.00 0.00 0.00 0.00 0.00 0.00 0.00 0.00 0.00 0.00 0.00 0.00 0.00 0.00 0.00 0.00 0.00 0.00 0.00 0.00 0.00 0.00 0.01 0.01 0.01 0.02 0.01 0.09 0.15 0.11 0.06 0.01 0.01 0.01 0.02 0.00 0.00 0.00 0.00 0.00 0.00 0.02 0.06 0.16 0.18
0.00 0.00 0.00 0.00 0.00 0.00 0.00 0.00 0.00 0.00 0.00 0.00 0.00 0.00 0.00 0.00 0.00 0.00 0.00 0.00 0.00 0.00 0.00 0.00 0.00 0.00 0.00 0.00 0.00 0.02 0.02 0.03 0.06 0.10 0.04 0.01 0.01 0.03 0.03 0.02 0.01 0.00 0.00 0.00 0.01 0.01 0.05 0.10 0.23
0.00 0.00 0.00 0.00 0.00 0.00 0.00 0.00 0.00 0.00 0.00 0.00 0.00 0.00 0.00 0.00 0.00 0.00 0.00 0.00 0.00 0.00 0.00 0.00 0.00 0.00 0.00 0.00 0.00 0.00 0.00 0.00 0.01 0.01 0.00 0.00 0.00 0.02 0.02 0.01 0.00 0.00 0.00 0.00 0.01 0.01 0.05 0.09 0.14
0.00 0.00 0.00 0.00 0.00 0.00 0.00 0.00 0.00 0.00 0.00 0.00 0.00 0.00 0.00 0.00 0.00 0.00 0.00 0.00 0.00 0.00 0.00 0.00 0.00 0.00 0.00 0.00 0.00 0.00 0.00 0.00 0.00 0.00 0.00 0.00 0.00 0.00 0.00 0.00 0.00 0.01 0.00 0.00 0.00 0.01 0.05 0.05 0.05
0.00 0.00 0.00 0.00 0.00 0.00 0.00 0.00 0.00 0.00 0.00 0.00 0.00 0.00 0.00 0.00 0.00 0.00 0.00 0.00 0.00 0.00 0.00 0.00 0.00 0.00 0.00 0.00 0.00 0.00 0.00 0.00 0.00 0.00 0.00 0.00 0.00 0.00 0.00 0.00 0.00 0.00 0.00 0.00 0.00 0.01 0.02 0.02 0.01
0.00 0.00 0.00 0.00 0.00 0.00 0.00 0.00 0.00 0.00 0.00 0.00 0.00 0.00 0.00 0.00 0.00 0.00 0.00 0.00 0.00 0.00 0.00 0.00 0.00 0.00 0.00 0.00 0.00 0.00 0.00 0.00 0.00 0.00 0.00 0.00 0.00 0.00 0.00 0.00 0.00 0.00 0.00 0.01 0.01 0.01 0.01 0.00 0.00
0.00 0.00 0.00 0.00 0.00 0.00 0.00 0.00 0.00 0.00 0.00 0.00 0.00 0.00 0.00 0.00 0.00 0.00 0.00 0.00 0.00 0.00 0.00 0.00 0.00 0.00 0.00 0.00 0.00 0.00 0.00 0.00 0.00 0.00 0.00 0.00 0.00 0.00 0.00 0.00 0.00 0.00 0.00 0.00 0.00 0.01 0.02 0.01 0.00
MSLP
1010.31 1010.70 1010.98 1011.26 1012.16 1012.18 1011.92 1011.36 1010.64 1009.94 1009.34 1008.68 1008.65 1008.84 1009.33 1009.50 1010.26 1011.57 1011.10 1011.23 1011.28 1011.87 1012.13 1012.45 1012.90 1013.29 1013.77 1014.16 1014.57 1014.88 1015.06 1015.32 1015.57 1015.66 1015.74 1015.81 1015.93 1016.06 1016.27 1016.38 1016.43 1016.62 1016.62 1016.61 1016.67 1016.83 1016.99 1017.04 1017.11
1010.52 1010.68 1010.93 1011.43 1012.05 1012.53 1011.58 1010.89 1010.14 1009.43 1008.87 1008.66 1008.39 1008.58 1009.27 1009.67 1010.23 1010.98 1011.33 1011.55 1011.68 1011.94 1012.20 1012.49 1012.91 1013.45 1013.85 1014.35 1014.72 1015.00 1015.19 1015.46 1015.73 1015.85 1015.91 1016.03 1016.15 1016.27 1016.38 1016.63 1016.63 1016.72 1016.85 1016.79 1016.89 1017.08 1017.16 1017.29 1017.32
1010.34 1010.50 1011.34 1011.99 1012.46 1012.16 1011.17 1010.01 1009.60 1009.12 1008.81 1008.59 1008.36 1008.31 1009.03 1009.95 1010.49 1010.94 1011.22 1011.64 1011.79 1012.13 1012.49 1012.68 1013.08 1013.51 1013.95 1014.39 1014.77 1015.05 1015.30 1015.61 1015.90 1016.05 1016.17 1016.28 1016.45 1016.55 1016.59 1016.73 1016.84 1016.90 1017.03 1017.07 1017.14 1017.29 1017.34 1017.43 1017.37
1010.35 1010.90 1011.87 1012.13 1012.37 1011.28 1010.53 1009.83 1009.29 1009.07 1008.96 1008.58 1008.53 1009.03 1009.57 1009.99 1010.45 1010.91 1011.42 1011.93 1012.13 1012.36 1012.73 1012.79 1013.19 1013.59 1014.02 1014.50 1014.87 1015.17 1015.46 1015.78 1016.02 1016.16 1016.31 1016.46 1016.64 1016.74 1016.80 1016.81 1016.98 1017.09 1017.15 1017.23 1017.27 1017.39 1017.44 1017.46 1017.47
1010.70 1011.54 1012.44 1012.64 1012.02 1010.92 1009.95 1009.54 1008.92 1008.86 1008.94 1008.74 1008.65 1009.33 1010.03 1010.47 1010.81 1011.24 1011.71 1012.16 1012.42 1012.96 1013.14 1013.09 1013.51 1013.80 1014.19 1014.50 1014.96 1015.38 1015.66 1015.89 1016.14 1016.32 1016.38 1016.48 1016.67 1016.86 1016.89 1016.94 1017.04 1017.14 1017.21 1017.25 1017.26 1017.31 1017.45 1017.53 1017.59
1011.25 1012.26 1013.02 1012.94 1011.81 1010.65 1009.68 1009.24 1009.02 1008.49 1008.24 1008.30 1008.61 1009.58 1010.68 1011.15 1011.46 1011.93 1012.09 1012.54 1012.96 1013.23 1013.55 1013.62 1013.74 1014.12 1014.48 1014.74 1015.03 1015.50 1015.81 1016.00 1016.12 1016.31 1016.48 1016.57 1016.70 1016.83 1016.93 1016.95 1016.98 1017.10 1017.21 1017.23 1017.28 1017.37 1017.40 1017.51 1017.60
1011.45 1012.54 1013.04 1012.66 1011.89 1010.74 1009.52 1009.05 1008.85 1008.31 1008.20 1008.14 1008.55 1009.81 1010.75 1011.26 1011.61 1012.10 1012.68 1013.00 1013.42 1013.67 1014.03 1014.30 1014.33 1014.42 1014.73 1015.04 1015.24 1015.57 1015.77 1016.04 1016.19 1016.39 1016.54 1016.64 1016.71 1016.85 1016.92 1016.90 1016.95 1017.02 1017.13 1017.18 1017.18 1017.31 1017.38 1017.40 1017.50
1011.20 1012.47 1012.95 1012.35 1011.72 1010.64 1009.42 1008.79 1008.65 1008.45 1007.90 1007.68 1007.99 1009.29 1010.28 1010.96 1011.76 1012.32 1012.93 1013.46 1013.93 1014.14 1014.32 1014.71 1014.73 1014.69 1014.89 1015.08 1015.24 1015.65 1015.83 1016.06 1016.20 1016.47 1016.55 1016.73 1016.83 1016.85 1016.93 1016.98 1017.02 1017.11 1017.11 1017.02 1016.94 1017.01 1017.12 1017.20 1017.18
1010.87 1012.34 1012.85 1011.95 1011.11 1010.33 1009.49 1009.03 1008.72 1008.17 1007.78 1007.86 1008.22 1009.03 1009.61 1010.69 1011.68 1012.52 1013.20 1013.71 1014.10 1014.26 1014.49 1014.54 1014.66 1014.96 1015.08 1015.21 1015.34 1015.58 1015.83 1016.01 1016.21 1016.45 1016.71 1016.81 1016.82 1016.91 1016.95 1017.11 1017.16 1017.11 1017.02 1016.86 1016.73 1016.76 1016.86 1016.81 1016.80
1011.07 1012.24 1012.14 1010.99 1010.20 1010.24 1009.73 1009.31 1008.84 1008.44 1008.09 1008.19 1008.71 1009.49 1010.04 1010.99 1011.68 1012.34 1012.84 1013.24 1013.64 1013.98 1014.08 1014.31 1014.48 1014.66 1015.06 1015.25 1015.40 1015.54 1015.75 1015.96 1016.24 1016.52 1016.68 1016.76 1016.84 1016.96 1017.00 1016.99 1017.01 1017.03 1016.99 1016.70 1016.59 1016.56 1016.50 1016.46 1016.42
1011.14 1011.54 1011.34 1010.37 1009.98 1009.84 1009.59 1009.20 1008.76 1008.52 1008.50 1008.05 1008.76 1009.95 1010.62 1011.25 1011.69 1012.22 1012.62 1012.47 1012.37 1012.99 1013.66 1013.85 1014.15 1014.14 1014.51 1014.81 1015.10 1015.27 1015.48 1015.76 1016.09 1016.26 1016.39 1016.60 1016.81 1016.90 1016.87 1016.95 1016.97 1017.10 1017.01 1016.84 1016.60 1016.48 1016.49 1016.41 1016.29
1010.64 1010.61 1010.48 1010.29 1009.71 1009.58 1009.46 1009.05 1009.00 1009.14 1008.85 1008.70 1008.73 1009.48 1010.48 1011.35 1011.73 1011.94 1012.56 1013.09 1013.07 1012.94 1013.00 1013.41 1013.74 1014.11 1014.14 1014.36 1014.50 1014.75 1015.01 1015.49 1015.75 1015.79 1016.10 1016.35 1016.51 1016.54 1016.60 1016.71 1016.79 1016.84 1016.76 1016.70 1016.64 1016.50 1016.24 1016.18 1016.08
1010.35 1010.28 1010.32 1009.91 1009.86 1009.60 1009.66 1010.92 1010.11 1009.76 1009.91 1009.27 1009.73 1011.36 1013.50 1014.38 1014.74 1014.63 1014.51 1014.55 1014.78 1015.22 1015.27 1015.43 1015.66 1015.19 1014.66 1014.68 1014.87 1015.02 1015.10 1015.21 1015.26 1015.51 1015.82 1016.00 1016.09 1016.21 1016.21 1016.18 1016.41 1016.51 1016.51 1016.48 1016.45 1016.53 1016.30 1016.04 1015.84
1009.91 1010.02 1010.03 1009.94 1009.64 1010.18 1012.57 1013.64 1012.70 1012.97 1011.39 1012.62 1012.89 1014.30 1015.21 1015.84 1016.15 1015.64 1015.52 1014.80 1014.48 1014.46 1014.74 1015.03 1015.27 1015.72 1016.55 1016.94 1016.75 1016.75 1016.77 1016.74 1016.62 1016.43 1016.31 1016.13 1015.98 1016.07 1016.21 1016.31 1016.19 1016.07 1016.12 1016.13 1016.20 1016.16 1016.11 1015.94 1015.76
1010.02 1010.23 1010.03 1011.77 1010.77 1011.51 1011.31 1015.39 1017.68 1016.37 1013.65 1014.38 1015.39 1016.27 1016.47 1017.22 1016.93 1017.53 1017.30 1016.40 1016.02 1014.45 1013.77 1013.76 1014.64 1015.28 1015.64 1015.78 1016.07 1016.06 1016.22 1016.23 1016.42 1016.43 1016.41 1016.51 1016.69 1016.69 1016.58 1016.52 1016.47 1016.15 1016.03 1016.04 1015.95 1015.75 1015.81 1015.84 1015.59
1010.75 1010.96 1011.49 1012.81 1012.28 1013.42 1013.20 1019.64 1019.56 1018.51 1016.22 1016.64 1017.26 1017.76 1018.05 1018.36 1018.81 1018.54 1018.29 1017.89 1017.19 1016.45 1015.93 1014.68 1014.71 1014.61 1014.87 1015.33 1015.44 1015.58 1015.70 1015.69 1015.72 1015.79 1015.87 1015.91 1016.05 1016.24 1016.48 1016.63 1016.56 1016.32 1016.05 1016.08 1016.17 1015.96 1015.77 1015.80 1015.79
1011.88 1012.23 1012.84 1014.15 1013.75 1013.94 1015.14 1020.12 1021.40 1020.61 1019.03 1018.64 1019.39 1019.55 1019.58 1019.60 1019.33 1019.70 1019.81 1019.49 1018.90 1018.18 1017.37 1016.23 1015.52 1015.61 1015.30 1015.11 1015.15 1015.36 1015.30 1015.19 1015.25 1015.17 1015.13 1015.25 1015.50 1015.70 1016.04 1016.24 1016.27 1016.32 1016.31 1016.31 1016.14 1016.06 1016.14 1015.90 1016.08
1012.55 1013.14 1014.67 1016.02 1018.31 1017.01 1019.22 1021.63 1022.37 1022.00 1021.16 1021.07 1021.42 1021.51 1021.16 1021.02 1021.35 1021.62 1021.14 1020.71 1020.11 1019.43 1018.76 1017.98 1017.24 1016.58 1015.80 1015.44 1014.79 1014.68 1014.76 1015.00 1014.84 1014.94 1014.99 1014.91 1014.83 1014.94 1015.19 1015.13 1015.17 1015.42 1015.55 1015.67 1015.99 1016.13 1016.11 1015.97 1015.98
1012.37 1013.36 1015.25 1017.26 1017.41 1018.76 1021.33 1022.39 1023.37 1023.52 1022.84 1023.33 1023.66 1023.44 1023.31 1023.21 1023.41 1022.95 1022.41 1021.96 1021.13 1020.22 1019.70 1019.34 1018.87 1018.29 1017.29 1016.54 1016.00 1015.06 1014.56 1014.34 1014.34 1014.42 1014.57 1014.53 1014.57 1014.52 1014.54 1014.66 1014.85 1014.77 1015.02 1014.99 1015.25 1015.58 1015.86 1016.31 1016.20
1012.44 1014.27 1016.33 1017.60 1017.90 1019.35 1021.77 1022.92 1024.30 1024.48 1024.75 1025.46 1025.61 1025.30 1025.38 1024.90 1024.28 1023.61 1022.79 1022.48 1022.32 1021.93 1021.63 1020.97 1020.58 1019.94 1019.11 1018.60 1017.50 1016.19 1015.06 1014.01 1013.59 1013.43 1013.60 1013.67 1013.69 1013.79 1014.04 1014.11 1014.11 1014.28 1014.50 1014.52 1014.60 1014.84 1015.33 1015.58 1016.13
1011.79 1013.03 1014.91 1016.12 1018.17 1019.86 1020.15 1023.21 1024.88 1025.36 1025.70 1026.45 1026.83 1027.01 1026.81 1026.71 1026.29 1025.71 1024.72 1024.10 1023.51 1022.98 1022.59 1022.10 1022.07 1021.36 1020.46 1020.05 1018.69 1017.01 1015.60 1015.23 1014.82 1014.66 1014.23 1013.77 1013.36 1013.21 1013.21 1012.95 1013.21 1013.20 1013.10 1013.45 1013.41 1013.74 1014.15 1014.77 1015.25
1010.54 1010.92 1013.07 1015.07 1016.54 1018.61 1019.68 1023.73 1025.29 1026.05 1026.69 1027.19 1027.71 1027.77 1027.81 1027.59 1027.51 1027.12 1026.59 1026.00 1025.50 1024.68 1024.01 1023.62 1023.36 1022.17 1021.35 1021.17 1020.30 1019.57 1018.83 1017.87 1016.94 1015.90 1015.19 1014.54 1013.75 1013.21 1012.22 1012.25 1012.57 1012.94 1012.93 1012.78 1012.52 1012.62 1012.68 1013.43 1014.51
1008.94 1009.78 1011.59 1013.15 1015.26 1017.42 1020.50 1022.73 1025.85 1026.64 1027.46 1028.22 1028.66 1028.76 1028.86 1028.91 1028.56 1027.85 1027.46 1027.10 1026.58 1025.87 1025.14 1024.53 1023.63 1022.67 1022.51 1022.15 1021.62 1020.70 1019.91 1019.24 1018.00 1016.91 1015.77 1014.39 1013.74 1013.21 1013.47 1012.59 1012.33 1012.63 1012.64 1012.48 1012.45 1012.79 1012.95 1012.72 1013.35
1008.76 1010.29 1012.53 1014.25 1015.77 1018.63 1021.51 1023.50 1027.25 1028.42 1029.56 1029.75 1029.54 1029.31 1029.18 1028.94 1028.72 1028.38 1027.87 1027.38 1026.64 1025.94 1025.32 1024.63 1024.16 1024.00 1023.77 1023.24 1022.39 1021.54 1020.89 1019.97 1018.84 1017.75 1016.83 1015.17 1014.20 1013.59 1012.89 1012.40 1012.22 1012.38 1012.26 1012.11 1011.94 1011.95 1012.05 1012.49 1012.87
1009.34 1010.96 1013.13 1015.13 1017.22 1020.10 1022.56 1024.78 1028.17 1029.35 1029.93 1030.37 1030.35 1030.23 1030.11 1029.80 1028.98 1028.44 1028.01 1027.57 1027.00 1026.30 1025.67 1025.09 1024.70 1024.22 1023.92 1023.41 1022.70 1021.89 1021.29 1020.81 1020.21 1019.16 1017.90 1016.54 1015.25 1014.14 1013.22 1012.92 1012.30 1012.02 1011.93 1011.36 1010.98 1011.04 1011.20 1011.56 1012.03
1010.53 1011.44 1013.10 1015.32 1017.98 1020.81 1023.10 1026.59 1028.80 1029.85 1030.37 1030.78 1031.02 1031.02 1030.80 1030.40 1029.95 1029.48 1028.90 1028.10 1027.38 1026.89 1026.14 1025.47 1024.78 1024.02 1023.63 1023.31 1022.68 1022.17 1021.65 1021.13 1020.51 1019.66 1018.62 1017.40 1016.20 1015.02 1013.92 1013.07 1012.29 1011.95 1011.35 1010.54 1010.20 1010.33 1010.32 1010.74 1011.51
1011.57 1012.44 1013.54 1015.58 1018.35 1021.40 1025.59 1028.20 1029.46 1029.99 1030.65 1030.98 1031.09 1031.11 1031.02 1030.81 1030.44 1030.01 1029.52 1028.77 1027.99 1027.33 1026.69 1025.95 1025.27 1024.53 1023.67 1023.02 1022.41 1022.05 1021.61 1020.94 1020.08 1019.26 1018.39 1017.25 1016.25 1015.11 1014.30 1013.42 1012.46 1011.87 1011.03 1009.97 1009.66 1009.66 1009.77 1010.00 1010.84
1012.45 1013.70 1014.67 1016.27 1019.20 1022.64 1026.06 1028.26 1029.44 1030.58 1031.22 1031.58 1031.65 1031.64 1031.43 1031.08 1030.67 1030.31 1029.86 1029.09 1028.38 1027.75 1027.09 1026.43 1025.93 1025.27 1024.72 1023.84 1022.68 1021.72 1021.08 1020.50 1019.65 1018.67 1017.62 1016.84 1015.90 1015.03 1014.00 1013.30 1012.53 1011.62 1010.64 1009.33 1008.59 1008.51 1008.91 1009.70 1010.20
1014.74 1015.41 1016.53 1017.73 1019.72 1022.11 1025.73 1028.47 1030.02 1031.03 1031.61 1031.89 1031.96 1031.83 1031.63 1031.31 1030.94 1030.49 1029.93 1029.27 1028.49 1027.73 1027.06 1026.28 1025.70 1025.09 1024.35 1023.60 1022.82 1021.91 1020.80 1019.70 1018.85 1018.06 1016.96 1016.06 1015.10 1014.41 1013.47 1012.52 1011.81 1011.11 1010.29 1009.01 1007.62 1007.49 1008.07 1008.64 1009.31
1017.29 1018.26 1018.74 1019.72 1021.61 1023.13 1025.43 1029.42 1030.45 1031.23 1031.75 1032.06 1032.32 1032.08 1031.71 1031.39 1030.95 1030.31 1029.63 1028.72 1027.83 1027.26 1026.65 1025.94 1025.25 1024.66 1024.03 1023.27 1022.51 1021.76 1020.89 1019.89 1018.75 1017.49 1016.26 1015.27 1014.03 1013.19 1012.58 1011.65 1010.70 1009.97 1009.28 1008.23 1006.55 1006.40 1006.75 1007.33 1008.13
Thickness
5805 5804 5803 5796 5766 5755 5749 5760 5776 5781 5789 5806 5809 5803 5796 5802 5792 5769 5806 5810 5810 5806 5803 5799 5796 5792 5786 5781 5776 5772 5770 5767 5764 5762 5761 5759 5756 5754 5750 5747 5746 5742 5742 5741 5740 5738 5735 5733 5732
5804 5804 5800 5782 5752 5733 5746 5770 5775 5786 5802 5806 5809 5808 5799 5795 5805 5800 5802 5808 5808 5805 5802 5799 5795 5790 5785 5779 5775 5771 5769 5765 5762 5760 5759 5757 5755 5754 5751 5746 5745 5743 5741 5742 5740 5737 5735 5733 5731
5805 5804 5783 5760 5740 5745 5752 5778 5784 5794 5802 5803 5803 5814 5806 5797 5805 5804 5809 5807 5805 5803 5799 5797 5794 5789 5784 5778 5774 5770 5768 5764 5760 5758 5756 5755 5753 5751 5750 5747 5745 5743 5740 5740 5738 5736 5734 5732 5732
5797 5791 5778 5753 5756 5768 5770 5779 5788 5790 5798 5808 5807 5794 5805 5811 5806 5809 5808 5805 5802 5799 5796 5795 5792 5787 5782 5777 5773 5769 5766 5762 5759 5757 5755 5754 5752 5750 5749 5748 5745 5743 5741 5739 5738 5735 5734 5732 5731
5790 5775 5746 5745 5753 5771 5781 5790 5797 5792 5793 5802 5807 5795 5796 5807 5810 5809 5805 5802 5799 5794 5792 5792 5787 5784 5780 5777 5771 5766 5763 5761 5758 5756 5756 5755 5752 5749 5748 5747 5746 5744 5742 5741 5739 5738 5735 5733 5731
5769 5763 5734 5733 5753 5775 5786 5795 5796 5799 5801 5807 5804 5795 5794 5805 5804 5802 5802 5796 5792 5790 5787 5786 5784 5780 5776 5774 5770 5764 5761 5760 5759 5757 5756 5754 5753 5750 5749 5748 5747 5745 5743 5742 5741 5739 5738 5735 5733
5761 5746 5738 5746 5751 5765 5788 5799 5794 5799 5799 5803 5812 5788 5794 5798 5803 5801 5796 5792 5788 5783 5781 5778 5777 5776 5772 5769 5767 5763 5762 5759 5759 5757 5756 5755 5753 5751 5749 5749 5748 5747 5745 5744 5743 5740 5738 5737 5735
5763 5750 5744 5748 5748 5759 5792 5799 5800 5800 5803 5823 5821 5790 5789 5800 5801 5798 5793 5787 5782 5779 5775 5773 5772 5772 5770 5768 5766 5762 5761 5760 5759 5757 5756 5754 5752 5751 5750 5749 5748 5746 5745 5746 5747 5744 5742 5740 5738
5774 5734 5730 5750 5758 5773 5788 5790 5802 5812 5810 5814 5818 5808 5811 5806 5801 5793 5787 5781 5778 5776 5774 5773 5771 5769 5768 5766 5765 5763 5761 5760 5760 5758 5755 5754 5753 5752 5751 5748 5747 5747 5747 5748 5748 5747 5745 5744 5743
5754 5730 5740 5765 5778 5774 5782 5787 5795 5800 5803 5804 5807 5808 5807 5801 5798 5791 5787 5782 5779 5776 5777 5775 5772 5771 5767 5764 5765 5764 5762 5761 5760 5758 5756 5755 5754 5752 5751 5750 5749 5748 5747 5749 5749 5748 5748 5747 5746
5751 5739 5756 5770 5779 5783 5783 5788 5802 5797 5792 5805 5801 5797 5798 5797 5795 5792 5788 5789 5790 5786 5781 5780 5777 5776 5772 5769 5768 5767 5767 5765 5763 5761 5759 5757 5754 5753 5753 5751 5750 5748 5747 5748 5750 5750 5747 5747 5747
5754 5762 5766 5771 5780 5786 5784 5798 5796 5795 5800 5810 5812 5808 5800 5794 5793 5792 5785 5781 5782 5784 5785 5783 5780 5777 5776 5774 5773 5771 5772 5769 5766 5765 5762 5760 5758 5758 5757 5755 5752 5751 5751 5750 5750 5749 5751 5750 5748
5755 5763 5760 5771 5776 5783 5790 5773 5786 5794 5799 5811 5806 5791 5768 5759 5756 5763 5767 5768 5765 5757 5759 5759 5758 5764 5770 5771 5769 5767 5768 5768 5767 5766 5763 5762 5762 5761 5760 5759 5756 5753 5752 5750 5749 5747 5748 5749 5750
5758 5762 5766 5773 5780 5777 5743 5741 5755 5756 5779 5758 5764 5751 5744 5741 5740 5747 5750 5758 5762 5764 5762 5760 5758 5753 5744 5741 5745 5746 5746 5746 5748 5750 5752 5755 5759 5759 5758 5756 5756 5756 5753 5752 5750 5749 5747 5748 5748
5760 5756 5765 5738 5766 5760 5765 5719 5703 5728 5755 5744 5736 5732 5733 5731 5736 5731 5735 5743 5747 5765 5769 5764 5757 5753 5752 5751 5748 5750 5750 5750 5749 5749 5749 5747 5745 5744 5746 5747 5749 5750 5750 5749 5750 5750 5748 5747 5748
5743 5739 5734 5731 5741 5736 5742 5670 5692 5709 5729 5725 5723 5721 5720 5719 5719 5724 5727 5732 5738 5744 5750 5763 5762 5759 5755 5752 5751 5750 5750 5750 5751 5751 5751 5750 5747 5745 5741 5739 5738 5739 5742 5741 5740 5744 5746 5744 5742
5718 5714 5727 5712 5731 5731 5722 5676 5677 5692 5704 5708 5703 5704 5708 5710 5714 5713 5714 5718 5723 5729 5736 5747 5754 5750 5750 5750 5747 5747 5748 5751 5750 5750 5752 5751 5749 5745 5741 5737 5734 5733 5732 5732 5734 5734 5734 5738 5735
5706 5706 5687 5686 5683 5699 5680 5663 5668 5676 5683 5685 5686 5689 5694 5698 5696 5695 5700 5706 5712 5718 5723 5729 5736 5742 5746 5746 5751 5750 5749 5747 5748 5747 5746 5746 5747 5746 5744 5744 5743 5740 5739 5736 5731 5729 5729 5729 5729
5717 5701 5683 5680 5693 5680 5660 5657 5656 5661 5665 5663 5663 5668 5671 5675 5676 5681 5688 5693 5700 5709 5713 5716 5719 5724 5732 5735 5737 5745 5747 5749 5749 5747 5743 5742 5742 5742 5741 5740 5738 5738 5737 5737 5735 5732 5728 5720 5719
5707 5683 5670 5673 5682 5675 5657 5651 5645 5649 5649 5643 5643 5648 5648 5655 5664 5672 5680 5684 5686 5691 5693 5698 5701 5706 5712 5715 5724 5734 5742 5748 5751 5750 5749 5746 5744 5742 5739 5738 5737 5734 5733 5734 5735 5733 5726 5722 5715
5704 5692 5683 5682 5674 5665 5670 5643 5636 5640 5639 5634 5631 5630 5633 5634 5640 5647 5657 5664 5670 5675 5679 5681 5681 5689 5696 5698 5709 5723 5734 5735 5734 5733 5737 5740 5740 5739 5739 5739 5735 5736 5739 5735 5735 5734 5731 5722 5717
5709 5724 5704 5686 5680 5666 5678 5630 5628 5630 5629 5625 5619 5619 5620 5624 5625 5630 5635 5640 5645 5653 5658 5663 5664 5675 5682 5682 5688 5693 5697 5703 5709 5717 5722 5721 5721 5725 5735 5736 5732 5731 5732 5735 5738 5735 5734 5728 5718
5730 5734 5714 5706 5692 5678 5664 5636 5621 5622 5616 5610 5608 5608 5608 5609 5612 5619 5622 5625 5630 5635 5641 5646 5653 5661 5663 5665 5668 5675 5679 5684 5692 5700 5706 5717 5722 5721 5720 5724 5724 5728 5729 5729 5728 5725 5724 5726 5718
5738 5718 5703 5690 5681 5660 5641 5634 5587 5594 5590 5591 5597 5600 5602 5604 5606 5610 5613 5616 5622 5627 5632 5637 5638 5638 5640 5642 5649 5656 5660 5667 5675 5683 5689 5701 5707 5712 5714 5718 5721 5722 5721 5721 5720 5726 5725 5720 5717
5715 5697 5663 5665 5656 5640 5625 5612 5581 5581 5583 5580 5582 5585 5587 5589 5595 5599 5601 5604 5608 5612 5617 5621 5623 5625 5626 5629 5634 5639 5642 5645 5649 5656 5667 5679 5690 5699 5706 5706 5711 5713 5713 5719 5723 5723 5722 5716 5711
5700 5692 5664 5653 5640 5630 5619 5578 5571 5573 5573 5571 5570 5569 5570 5573 5577 5581 5585 5589 5593 5595 5599 5603 5608 5615 5617 5618 5622 5624 5627 5629 5632 5639 5648 5658 5669 5679 5688 5694 5700 5703 5708 5714 5719 5716 5716 5710 5701
5691 5673 5679 5651 5640 5618 5573 5563 5568 5571 5565 5562 5560 5560 5558 5558 5560 5562 5566 5572 5579 5583 5585 5588 5592 5596 5602 5605 5610 5610 5612 5616 5622 5628 5636 5646 5652 5662 5669 5676 5684 5688 5696 5706 5709 5709 5708 5702 5693
5682 5674 5661 5645 5631 5614 5582 5559 5561 5551 5547 5546 5543 5543 5544 5546 5548 5549 5550 5556 5561 5565 5568 5572 5575 5579 5582 5587 5594 5601 5602 5604 5609 5617 5624 5628 5639 5648 5656 5662 5668 5674 5682 5695 5702 5703 5701 5691 5686
5647 5646 5639 5633 5621 5614 5586 5561 5543 5535 5531 5528 5528 5530 5530 5531 5533 5535 5538 5542 5547 5551 5553 5558 5560 5564 5569 5574 5580 5585 5590 5595 5601 5605 5613 5620 5629 5634 5641 5650 5658 5663 5668 5679 5694 5696 5693 5687 5680
5623 5616 5615 5621 5614 5591 5589 5536 5532 5529 5521 5517 5516 5518 5520 5521 5522 5526 5530 5536 5542 5543 5543 5545 5548 5551 5553 5556 5561 5566 5571 5576 5584 5591 5599 5605 5616 5626 5632 5640 5648 5655 5659 5668 5686 5689 5689 5685 5677